• In Hungary
  • List of Countries
  • For 7 days
  • Water Temperature
  • Satellite Maps
  • Weather Map
  • News
  • Weather Widgets
  • user-avatar
    Login

    Hourly Weather Potelych

    Today, 21 November, Tuesday

    Time Temperature Precipitation Wind Pressure Humidity
    00:00 0°C° 0.1 mm 3 mps 733 mmHg 85%
    01:00 -2°C° 0.1 mm 4 mps 732 mmHg 87%
    02:00 0°C° 0 mm 3 mps 732 mmHg 88%
    03:00 -1°C° 0.2 mm 3 mps 732 mmHg 89%
    04:00 -2°C° 0.2 mm 4 mps 732 mmHg 90%
    05:00 -2°C° 0.2 mm 4 mps 732 mmHg 91%
    06:00 -2°C° 0 mm 4 mps 732 mmHg 92%
    07:00 -2°C° 0 mm 3 mps 733 mmHg 93%
    08:00 -2°C° 0 mm 3 mps 732 mmHg 94%
    09:00 -1°C° 0 mm 3 mps 733 mmHg 90%
    10:00 -1°C° 0 mm 3 mps 733 mmHg 85%
    11:00 0°C° 0 mm 3 mps 733 mmHg 81%
    12:00 +1°C° 0 mm 3 mps 733 mmHg 79%
    13:00 +1°C° 0 mm 3 mps 733 mmHg 76%
    14:00 +1°C° 0 mm 3 mps 733 mmHg 74%
    15:00 +2°C° 0 mm 2 mps 733 mmHg 77%
    16:00 +1°C° 0 mm 2 mps 733 mmHg 80%
    17:00 +2°C° 0 mm 1 mps 733 mmHg 83%
    18:00 +2°C° 0 mm 1 mps 733 mmHg 84%
    19:00 +1°C° 0 mm 1 mps 733 mmHg 85%
    20:00 +1°C° 0 mm 1 mps 733 mmHg 86%
    21:00 +1°C° 0 mm 1 mps 733 mmHg 87%
    22:00 +1°C° 0 mm 1 mps 733 mmHg 87%
    23:00 +1°C° 0 mm 1 mps 733 mmHg 87%

    Tomorrow, 22 November, Wednesday

    Time Temperature Precipitation Wind Pressure Humidity
    00:00 +1°C° 0 mm 1 mps 733 mmHg 87%
    01:00 +1°C° 0 mm 1 mps 733 mmHg 88%
    02:00 +1°C° 0 mm 1 mps 733 mmHg 88%
    03:00 +1°C° 0 mm 1 mps 733 mmHg 89%
    04:00 +1°C° 0 mm 1 mps 733 mmHg 89%
    05:00 +1°C° 0 mm 1 mps 733 mmHg 89%
    06:00 +1°C° 0 mm 1 mps 733 mmHg 89%
    07:00 +1°C° 0 mm 1 mps 733 mmHg 89%
    08:00 +1°C° 0 mm 1 mps 733 mmHg 89%
    09:00 +2°C° 0 mm 1 mps 733 mmHg 86%
    10:00 +3°C° 0 mm 1 mps 734 mmHg 83%
    11:00 +4°C° 0 mm 1 mps 734 mmHg 80%
    12:00 +3°C° 0 mm 2 mps 734 mmHg 80%
    13:00 +3°C° 0 mm 2 mps 734 mmHg 80%
    14:00 +4°C° 0 mm 2 mps 733 mmHg 80%
    15:00 +3°C° 0.5 mm 2 mps 733 mmHg 83%
    16:00 +3°C° 0.5 mm 2 mps 733 mmHg 86%
    17:00 +2°C° 0.5 mm 2 mps 733 mmHg 90%
    18:00 +2°C° 0.9 mm 2 mps 733 mmHg 90%
    19:00 +2°C° 0.9 mm 2 mps 734 mmHg 91%
    20:00 +3°C° 0.9 mm 2 mps 734 mmHg 92%
    21:00 +3°C° 0.2 mm 2 mps 734 mmHg 92%
    22:00 +3°C° 0.2 mm 2 mps 734 mmHg 93%
    23:00 +2°C° 0.2 mm 3 mps 734 mmHg 93%

    Day after tomorrow, 23 November, Thursday

    Time Temperature Precipitation Wind Pressure Humidity
    00:00 +3°C° 0 mm 2 mps 735 mmHg 93%
    01:00 +3°C° 0 mm 2 mps 735 mmHg 94%
    02:00 +3°C° 0 mm 2 mps 735 mmHg 94%
    03:00 +3°C° 0 mm 2 mps 735 mmHg 94%
    04:00 +2°C° 0 mm 2 mps 735 mmHg 94%
    05:00 +2°C° 0 mm 2 mps 735 mmHg 94%
    06:00 +3°C° 0 mm 1 mps 736 mmHg 94%
    07:00 +3°C° 0 mm 1 mps 736 mmHg 94%
    08:00 +3°C° 0 mm 1 mps 736 mmHg 94%
    09:00 +3°C° 0 mm 2 mps 737 mmHg 91%
    10:00 +4°C° 0 mm 2 mps 737 mmHg 87%
    11:00 +5°C° 0 mm 2 mps 737 mmHg 84%
    12:00 +6°C° 0 mm 2 mps 737 mmHg 82%
    13:00 +7°C° 0 mm 2 mps 737 mmHg 80%
    14:00 +7°C° 0 mm 2 mps 737 mmHg 78%
    15:00 +6°C° 0 mm 2 mps 738 mmHg 82%
    16:00 +5°C° 0 mm 2 mps 738 mmHg 86%
    17:00 +4°C° 0 mm 2 mps 738 mmHg 90%
    18:00 +4°C° 0 mm 2 mps 738 mmHg 91%
    19:00 +4°C° 0 mm 2 mps 738 mmHg 91%
    20:00 +2°C° 0 mm 3 mps 738 mmHg 92%
    21:00 +3°C° 0 mm 2 mps 738 mmHg 92%
    22:00 +3°C° 0 mm 2 mps 739 mmHg 92%
    23:00 +3°C° 0 mm 2 mps 739 mmHg 92%

    24 November, Friday

    Time Temperature Precipitation Wind Pressure Humidity
    00:00 +3°C° 0 mm 2 mps 739 mmHg 92%
    01:00 +2°C° 0 mm 2 mps 739 mmHg 92%
    02:00 +2°C° 0 mm 2 mps 739 mmHg 92%
    03:00 +2°C° 0 mm 2 mps 739 mmHg 92%
    04:00 +2°C° 0 mm 2 mps 739 mmHg 92%
    05:00 +2°C° 0 mm 2 mps 739 mmHg 92%
    06:00 +2°C° 0 mm 2 mps 739 mmHg 92%
    07:00 +2°C° 0 mm 2 mps 740 mmHg 92%
    08:00 +2°C° 0 mm 2 mps 740 mmHg 92%
    09:00 +3°C° 0 mm 2 mps 740 mmHg 88%
    10:00 +4°C° 0 mm 2 mps 740 mmHg 85%
    11:00 +6°C° 0 mm 2 mps 741 mmHg 81%
    12:00 +6°C° 0 mm 2 mps 740 mmHg 79%
    13:00 +7°C° 0 mm 2 mps 740 mmHg 78%
    14:00 +8°C° 0 mm 2 mps 740 mmHg 76%
    15:00 +7°C° 0 mm 2 mps 740 mmHg 80%
    16:00 +6°C° 0 mm 2 mps 740 mmHg 84%
    17:00 +5°C° 0 mm 2 mps 741 mmHg 88%
    18:00 +5°C° 0 mm 2 mps 741 mmHg 88%
    19:00 +4°C° 0 mm 2 mps 741 mmHg 89%
    20:00 +4°C° 0 mm 2 mps 741 mmHg 90%
    21:00 +4°C° 0 mm 2 mps 741 mmHg 90%
    22:00 +4°C° 0 mm 2 mps 741 mmHg 90%
    23:00 +3°C° 0 mm 2 mps 741 mmHg 90%

    25 November, Saturday

    Time Temperature Precipitation Wind Pressure Humidity
    00:00 +3°C° 0 mm 2 mps 741 mmHg 90%
    01:00 +3°C° 0 mm 2 mps 741 mmHg 90%
    02:00 +3°C° 0 mm 2 mps 741 mmHg 90%
    03:00 +2°C° 0 mm 3 mps 741 mmHg 90%
    04:00 +2°C° 0 mm 3 mps 741 mmHg 90%
    05:00 +2°C° 0 mm 3 mps 741 mmHg 90%
    06:00 +2°C° 0 mm 3 mps 741 mmHg 90%
    07:00 +2°C° 0 mm 3 mps 741 mmHg 89%
    08:00 +2°C° 0 mm 3 mps 741 mmHg 89%
    09:00 +3°C° 0 mm 3 mps 741 mmHg 85%
    10:00 +4°C° 0 mm 3 mps 741 mmHg 81%
    11:00 +5°C° 0 mm 4 mps 741 mmHg 77%
    12:00 +6°C° 0 mm 4 mps 741 mmHg 75%
    13:00 +7°C° 0 mm 4 mps 740 mmHg 73%
    14:00 +7°C° 0 mm 4 mps 740 mmHg 71%
    15:00 +6°C° 0 mm 4 mps 740 mmHg 75%
    16:00 +5°C° 0 mm 4 mps 739 mmHg 78%
    17:00 +4°C° 0 mm 4 mps 739 mmHg 82%
    18:00 +4°C° 0 mm 4 mps 739 mmHg 82%
    19:00 +4°C° 0 mm 4 mps 739 mmHg 82%
    20:00 +4°C° 0 mm 4 mps 738 mmHg 82%
    21:00 +4°C° 0 mm 4 mps 739 mmHg 82%
    22:00 +4°C° 0 mm 4 mps 739 mmHg 81%
    23:00 +4°C° 0 mm 4 mps 739 mmHg 80%

    26 November, Sunday

    Time Temperature Precipitation Wind Pressure Humidity
    00:00 +4°C° 0 mm 4 mps 739 mmHg 80%
    01:00 +4°C° 0 mm 4 mps 739 mmHg 81%
    02:00 +4°C° 0 mm 4 mps 739 mmHg 81%
    03:00 +4°C° 0.1 mm 3 mps 739 mmHg 82%
    04:00 +4°C° 0.1 mm 3 mps 739 mmHg 83%
    05:00 +4°C° 0.1 mm 3 mps 739 mmHg 85%
    06:00 +4°C° 0.1 mm 3 mps 739 mmHg 87%
    07:00 +4°C° 0.1 mm 3 mps 739 mmHg 89%
    08:00 +4°C° 0.1 mm 3 mps 739 mmHg 92%
    09:00 +5°C° 0.1 mm 3 mps 739 mmHg 90%
    10:00 +5°C° 0.1 mm 3 mps 739 mmHg 89%
    11:00 +5°C° 0.1 mm 3 mps 739 mmHg 87%
    12:00 +7°C° 0.1 mm 2 mps 739 mmHg 86%
    13:00 +7°C° 0.1 mm 2 mps 739 mmHg 85%
    14:00 +8°C° 0.1 mm 1 mps 739 mmHg 84%
    15:00 +8°C° 0.2 mm 1 mps 739 mmHg 87%
    16:00 +7°C° 0.2 mm 1 mps 739 mmHg 89%
    17:00 +7°C° 0.2 mm 1 mps 738 mmHg 92%
    18:00 +6°C° 0.9 mm 1 mps 738 mmHg 93%
    19:00 +6°C° 0.9 mm 1 mps 738 mmHg 94%
    20:00 +6°C° 0.9 mm 1 mps 738 mmHg 96%
    21:00 +5°C° 0.9 mm 2 mps 738 mmHg 94%
    22:00 +5°C° 0.9 mm 2 mps 738 mmHg 92%
    23:00 +3°C° 0.9 mm 3 mps 738 mmHg 91%
    Show more